When you browse on this site, cookies collect data to enhance your experience and personalize the content and advertising you see.
Visit our Privacy Policy to learn more. By continuing to use the site, you agree to this use of cookies and data.
  • In Lithuania
  • List of Countries
  • For 7 days
  • Water Temperature
  • Weather Map
  • Weather Widgets
  • user-avatar
    Login

    Hourly Weather Satif

    Today, 22 January, Wednesday

    Time Temperature Precipitation Wind Pressure Humidity
    00:00 +5°C° 0 mm 3 mps 672 mmHg 57%
    01:00 +5°C° 0 mm 4 mps 672 mmHg 56%
    02:00 +5°C° 0 mm 4 mps 672 mmHg 55%
    03:00 +5°C° 0 mm 5 mps 672 mmHg 54%
    04:00 +5°C° 0 mm 5 mps 672 mmHg 54%
    05:00 +5°C° 0 mm 5 mps 672 mmHg 54%
    06:00 +5°C° 0 mm 5 mps 672 mmHg 55%
    07:00 +7°C° 0 mm 6 mps 672 mmHg 51%
    08:00 +8°C° 0 mm 6 mps 673 mmHg 48%
    09:00 +9°C° 0 mm 6 mps 673 mmHg 45%
    10:00 +11°C° 0 mm 8 mps 674 mmHg 40%
    11:00 +12°C° 0 mm 9 mps 674 mmHg 35%
    12:00 +14°C° 0 mm 10 mps 674 mmHg 31%
    13:00 +14°C° 0 mm 10 mps 673 mmHg 32%
    14:00 +15°C° 0 mm 9 mps 673 mmHg 33%
    15:00 +15°C° 0 mm 8 mps 673 mmHg 34%
    16:00 +12°C° 0 mm 7 mps 672 mmHg 42%
    17:00 +10°C° 0 mm 5 mps 672 mmHg 49%
    18:00 +8°C° 0 mm 4 mps 671 mmHg 57%
    19:00 +7°C° 0 mm 4 mps 671 mmHg 59%
    20:00 +7°C° 0 mm 4 mps 671 mmHg 60%
    21:00 +8°C° 0 mm 3 mps 672 mmHg 62%
    22:00 +7°C° 0 mm 3 mps 672 mmHg 61%
    23:00 +7°C° 0 mm 2 mps 672 mmHg 61%

    Tomorrow, 23 January, Thursday

    Time Temperature Precipitation Wind Pressure Humidity
    00:00 +7°C° 0 mm 2 mps 672 mmHg 61%
    01:00 +7°C° 0 mm 1 mps 672 mmHg 63%
    02:00 +7°C° 0 mm 1 mps 672 mmHg 65%
    03:00 +6°C° 0 mm 1 mps 671 mmHg 67%
    04:00 +5°C° 0 mm 0 mps 671 mmHg 70%
    05:00 +4°C° 0 mm 0 mps 671 mmHg 73%
    06:00 +4°C° 0 mm 0 mps 671 mmHg 75%
    07:00 +7°C° 0 mm 1 mps 672 mmHg 70%
    08:00 +8°C° 0 mm 1 mps 673 mmHg 64%
    09:00 +10°C° 0 mm 1 mps 673 mmHg 58%
    10:00 +11°C° 0 mm 1 mps 674 mmHg 54%
    11:00 +12°C° 0 mm 1 mps 674 mmHg 51%
    12:00 +13°C° 0 mm 1 mps 674 mmHg 47%
    13:00 +13°C° 0 mm 1 mps 674 mmHg 46%
    14:00 +13°C° 0 mm 2 mps 673 mmHg 45%
    15:00 +13°C° 0 mm 2 mps 673 mmHg 44%
    16:00 +12°C° 0 mm 2 mps 673 mmHg 52%
    17:00 +9°C° 0 mm 2 mps 673 mmHg 60%
    18:00 +7°C° 0 mm 2 mps 672 mmHg 68%
    19:00 +7°C° 0 mm 2 mps 673 mmHg 69%
    20:00 +6°C° 0 mm 2 mps 673 mmHg 69%
    21:00 +6°C° 0 mm 2 mps 673 mmHg 70%
    22:00 +6°C° 0 mm 2 mps 673 mmHg 70%
    23:00 +5°C° 0 mm 2 mps 673 mmHg 70%

    Day after tomorrow, 24 January, Friday

    Time Temperature Precipitation Wind Pressure Humidity
    00:00 +5°C° 0 mm 2 mps 673 mmHg 70%
    01:00 +4°C° 0 mm 2 mps 673 mmHg 70%
    02:00 +4°C° 0 mm 2 mps 672 mmHg 70%
    03:00 +4°C° 0 mm 2 mps 672 mmHg 70%
    04:00 +4°C° 0 mm 2 mps 672 mmHg 71%
    05:00 +3°C° 0 mm 2 mps 672 mmHg 71%
    06:00 +3°C° 0 mm 2 mps 673 mmHg 72%
    07:00 +5°C° 0 mm 2 mps 673 mmHg 66%
    08:00 +6°C° 0 mm 2 mps 674 mmHg 61%
    09:00 +8°C° 0 mm 2 mps 675 mmHg 55%
    10:00 +9°C° 0 mm 3 mps 675 mmHg 49%
    11:00 +10°C° 0 mm 4 mps 675 mmHg 43%
    12:00 +12°C° 0 mm 4 mps 675 mmHg 38%
    13:00 +12°C° 0 mm 4 mps 675 mmHg 37%
    14:00 +12°C° 0 mm 4 mps 675 mmHg 37%
    15:00 +12°C° 0 mm 4 mps 674 mmHg 36%
    16:00 +10°C° 0 mm 3 mps 674 mmHg 41%
    17:00 +9°C° 0 mm 3 mps 674 mmHg 46%
    18:00 +7°C° 0 mm 2 mps 674 mmHg 52%
    19:00 +7°C° 0 mm 2 mps 674 mmHg 52%
    20:00 +6°C° 0 mm 2 mps 674 mmHg 53%
    21:00 +6°C° 0 mm 2 mps 674 mmHg 54%
    22:00 +6°C° 0 mm 2 mps 674 mmHg 55%
    23:00 +5°C° 0 mm 2 mps 674 mmHg 55%

    25 January, Saturday

    Time Temperature Precipitation Wind Pressure Humidity
    00:00 +5°C° 0 mm 2 mps 674 mmHg 55%
    01:00 +5°C° 0 mm 2 mps 673 mmHg 55%
    02:00 +5°C° 0 mm 2 mps 673 mmHg 54%
    03:00 +5°C° 0 mm 2 mps 673 mmHg 54%
    04:00 +5°C° 0 mm 2 mps 673 mmHg 55%
    05:00 +5°C° 0 mm 2 mps 673 mmHg 56%
    06:00 +4°C° 0 mm 2 mps 673 mmHg 57%
    07:00 +6°C° 0 mm 2 mps 673 mmHg 54%
    08:00 +7°C° 0 mm 2 mps 674 mmHg 52%
    09:00 +8°C° 0 mm 3 mps 674 mmHg 49%
    10:00 +8°C° 0 mm 4 mps 674 mmHg 45%
    11:00 +10°C° 0 mm 5 mps 674 mmHg 41%
    12:00 +11°C° 0 mm 6 mps 674 mmHg 38%
    13:00 +11°C° 0 mm 7 mps 674 mmHg 40%
    14:00 +11°C° 0 mm 7 mps 673 mmHg 41%
    15:00 +10°C° 0 mm 8 mps 673 mmHg 43%
    16:00 +9°C° 0 mm 7 mps 673 mmHg 48%
    17:00 +8°C° 0 mm 6 mps 672 mmHg 52%
    18:00 +7°C° 0 mm 5 mps 672 mmHg 57%
    19:00 +7°C° 0 mm 5 mps 672 mmHg 58%
    20:00 +6°C° 0 mm 5 mps 673 mmHg 60%
    21:00 +6°C° 0 mm 5 mps 673 mmHg 61%
    22:00 +5°C° 0 mm 4 mps 673 mmHg 66%
    23:00 +5°C° 0 mm 4 mps 673 mmHg 70%

    26 January, Sunday

    Time Temperature Precipitation Wind Pressure Humidity
    00:00 +5°C° 0 mm 4 mps 673 mmHg 74%
    01:00 +4°C° 0 mm 3 mps 673 mmHg 76%
    02:00 +4°C° 0 mm 3 mps 672 mmHg 78%
    03:00 +5°C° 0 mm 2 mps 672 mmHg 80%
    04:00 +4°C° 0 mm 2 mps 672 mmHg 81%
    05:00 +4°C° 0 mm 2 mps 672 mmHg 82%
    06:00 +5°C° 0 mm 1 mps 672 mmHg 83%
    07:00 +5°C° 0 mm 2 mps 673 mmHg 78%
    08:00 +6°C° 0 mm 2 mps 674 mmHg 73%
    09:00 +8°C° 0 mm 2 mps 675 mmHg 68%
    10:00 +9°C° 0 mm 3 mps 675 mmHg 63%
    11:00 +10°C° 0 mm 4 mps 675 mmHg 57%
    12:00 +9°C° 0 mm 5 mps 675 mmHg 52%
    13:00 +9°C° 0.1 mm 5 mps 675 mmHg 53%
    14:00 +9°C° 0.1 mm 5 mps 675 mmHg 53%
    15:00 +9°C° 0.1 mm 5 mps 675 mmHg 54%
    16:00 +8°C° 0 mm 4 mps 675 mmHg 61%
    17:00 +7°C° 0 mm 3 mps 675 mmHg 68%
    18:00 +6°C° 0 mm 2 mps 675 mmHg 75%
    19:00 +5°C° 0 mm 2 mps 675 mmHg 76%
    20:00 +5°C° 0 mm 2 mps 675 mmHg 76%
    21:00 +5°C° 0 mm 1 mps 675 mmHg 77%
    22:00 +5°C° 0 mm 1 mps 675 mmHg 78%
    23:00 +5°C° 0 mm 1 mps 675 mmHg 80%

    27 January, Monday

    Time Temperature Precipitation Wind Pressure Humidity
    00:00 +4°C° 0 mm 1 mps 675 mmHg 81%
    01:00 +4°C° 0 mm 1 mps 675 mmHg 82%
    02:00 +4°C° 0 mm 2 mps 675 mmHg 82%
    03:00 +4°C° 0 mm 2 mps 675 mmHg 82%
    04:00 +4°C° 0 mm 2 mps 676 mmHg 83%
    05:00 +4°C° 0 mm 1 mps 676 mmHg 84%
    06:00 +4°C° 0 mm 1 mps 676 mmHg 85%
    07:00 +5°C° 0 mm 1 mps 676 mmHg 82%
    08:00 +6°C° 0 mm 1 mps 677 mmHg 80%
    09:00 +7°C° 0 mm 1 mps 678 mmHg 77%
    10:00 +7°C° 0 mm 1 mps 678 mmHg 73%
    11:00 +8°C° 0 mm 1 mps 678 mmHg 69%
    12:00 +8°C° 0 mm 2 mps 678 mmHg 66%
    13:00 +9°C° 0 mm 1 mps 678 mmHg 64%
    14:00 +10°C° 0 mm 1 mps 677 mmHg 62%
    15:00 +10°C° 0 mm 1 mps 677 mmHg 61%
    16:00 +9°C° 0 mm 1 mps 677 mmHg 66%
    17:00 +8°C° 0 mm 1 mps 677 mmHg 71%
    18:00 +7°C° 0 mm 1 mps 677 mmHg 76%
    19:00 +7°C° 0 mm 1 mps 677 mmHg 78%
    20:00 +6°C° 0 mm 1 mps 677 mmHg 81%
    21:00 +6°C° 0 mm 1 mps 677 mmHg 83%
    22:00 +5°C° 0 mm 1 mps 677 mmHg 83%
    23:00 +5°C° 0 mm 1 mps 677 mmHg 84%
    Show more